Starlink 32856

operational
NORAD ID: 62819 Int'l Des: 2025-018 Owner: SPXS Country: US Constellation: starlink
LEOCIRCULAR

Über Starlink 32856

Beschreibung wird geladen...

Live-Position

3D-Globus wird geladen...

Nächste Überflüge

Höhenverlauf

Altitude vs Time

uPlot chart will show altitude changes over time

Zweizeiliger Elementsatz

1 62819U 25018P 25351.36060136 .00031865 00000-0 10834-2 0 9994
2 62819 53.1611 331.9943 0001200 90.8342 269.2796 15.30199974 50572
Epoch: 17. Dez. 2025 • Age: 12 hours

Aktueller Status

Höhe 492.6 km
Geschwindigkeit 7.62 km/s
Subsatellitenpunkt -48.55°S, 128.03°W
Startdatum 24. Jan. 2025
Alter 0.8 years
Typ internet

Technische Details

Klassifizierung Payload
Masse 730.00 kg
Trockenmasse 700.00 kg
Gesamtmasse 730.00 kg
Länge 0.30 m
Durchmesser 4.10 m
Spannweite 29.00 m
Form Box + pan
Hersteller SPXS
Bus-Typ Starlink V2M
Phasenstatus In Orbit
Besitzer/Staat SPXS/US

Große Konstellationen

Loading constellations...